• En España
  • Lista de países
  • Para 7 días
  • Temperatura del agua
  • Mapa Satelital
  • El tiempo en el mapa
  • Informadores
  • user-avatar
    Iniciar sesión

    Tiempo cada hora Portyanur

    Hoy, 18 Agosto, Sábado

    Tiempo Temperatura Precipitaciones Viento Presión Humedad
    00:00 +10°C° 0 mm 2 mps 754 mmHg 86%
    01:00 +10°C° 0 mm 2 mps 754 mmHg 88%
    02:00 +9°C° 0 mm 2 mps 755 mmHg 89%
    03:00 +9°C° 0 mm 2 mps 755 mmHg 90%
    04:00 +9°C° 0 mm 2 mps 755 mmHg 88%
    05:00 +10°C° 0 mm 2 mps 755 mmHg 86%
    06:00 +10°C° 0 mm 2 mps 755 mmHg 84%
    07:00 +13°C° 0 mm 2 mps 755 mmHg 77%
    08:00 +14°C° 0 mm 3 mps 755 mmHg 71%
    09:00 +17°C° 0 mm 3 mps 756 mmHg 63%
    10:00 +17°C° 0 mm 3 mps 755 mmHg 60%
    11:00 +18°C° 0 mm 4 mps 755 mmHg 58%
    12:00 +19°C° 0 mm 4 mps 755 mmHg 55%
    13:00 +19°C° 0 mm 4 mps 755 mmHg 55%
    14:00 +19°C° 0 mm 4 mps 755 mmHg 55%
    15:00 +20°C° 0 mm 4 mps 755 mmHg 54%
    16:00 +19°C° 0 mm 3 mps 755 mmHg 59%
    17:00 +18°C° 0 mm 2 mps 755 mmHg 64%
    18:00 +17°C° 0 mm 2 mps 755 mmHg 69%
    19:00 +16°C° 0 mm 2 mps 755 mmHg 73%
    20:00 +14°C° 0 mm 1 mps 755 mmHg 77%
    21:00 +13°C° 0 mm 1 mps 755 mmHg 81%
    22:00 +12°C° 0 mm 1 mps 755 mmHg 83%
    23:00 +11°C° 0 mm 1 mps 755 mmHg 84%

    Mañana, 19 Agosto, Domingo

    Tiempo Temperatura Precipitaciones Viento Presión Humedad
    00:00 +10°C° 0 mm 0 mps 755 mmHg 86%
    01:00 +10°C° 0 mm 0 mps 755 mmHg 86%
    02:00 +9°C° 0 mm 0 mps 755 mmHg 86%
    03:00 +9°C° 0 mm 0 mps 755 mmHg 87%
    04:00 +10°C° 0 mm 0 mps 755 mmHg 85%
    05:00 +11°C° 0 mm 0 mps 756 mmHg 82%
    06:00 +11°C° 0 mm 0 mps 756 mmHg 80%
    07:00 +13°C° 0 mm 0 mps 756 mmHg 73%
    08:00 +15°C° 0 mm 0 mps 756 mmHg 66%
    09:00 +17°C° 0 mm 0 mps 755 mmHg 60%
    10:00 +20°C° 0 mm 1 mps 755 mmHg 56%
    11:00 +21°C° 0 mm 1 mps 755 mmHg 52%
    12:00 +22°C° 0 mm 1 mps 755 mmHg 49%
    13:00 +22°C° 0 mm 1 mps 754 mmHg 48%
    14:00 +23°C° 0 mm 1 mps 754 mmHg 48%
    15:00 +23°C° 0 mm 1 mps 754 mmHg 48%
    16:00 +22°C° 0 mm 1 mps 753 mmHg 54%
    17:00 +21°C° 0 mm 1 mps 753 mmHg 59%
    18:00 +20°C° 0 mm 1 mps 753 mmHg 64%
    19:00 +19°C° 0 mm 1 mps 753 mmHg 67%
    20:00 +16°C° 0 mm 2 mps 752 mmHg 70%
    21:00 +15°C° 0 mm 2 mps 752 mmHg 73%
    22:00 +14°C° 0 mm 2 mps 752 mmHg 74%
    23:00 +14°C° 0 mm 2 mps 752 mmHg 76%

    Pasado mañana, 20 Agosto, Lunes

    Tiempo Temperatura Precipitaciones Viento Presión Humedad
    00:00 +13°C° 0 mm 2 mps 752 mmHg 78%
    01:00 +13°C° 0 mm 2 mps 752 mmHg 81%
    02:00 +13°C° 0 mm 2 mps 752 mmHg 84%
    03:00 +12°C° 0 mm 2 mps 751 mmHg 87%
    04:00 +12°C° 0 mm 3 mps 751 mmHg 87%
    05:00 +13°C° 0 mm 3 mps 751 mmHg 86%
    06:00 +13°C° 0 mm 3 mps 751 mmHg 85%
    07:00 +15°C° 0 mm 4 mps 750 mmHg 79%
    08:00 +18°C° 0 mm 4 mps 750 mmHg 73%
    09:00 +19°C° 0 mm 4 mps 750 mmHg 67%
    10:00 +20°C° 0 mm 5 mps 749 mmHg 66%
    11:00 +21°C° 0 mm 5 mps 749 mmHg 64%
    12:00 +22°C° 0 mm 5 mps 749 mmHg 63%
    13:00 +21°C° 0,3 mm 5 mps 749 mmHg 70%
    14:00 +20°C° 0,3 mm 4 mps 748 mmHg 77%
    15:00 +19°C° 0,3 mm 3 mps 748 mmHg 84%
    16:00 +19°C° 0,2 mm 3 mps 748 mmHg 84%
    17:00 +20°C° 0,2 mm 3 mps 747 mmHg 84%
    18:00 +20°C° 0,2 mm 3 mps 747 mmHg 83%
    19:00 +19°C° 0,2 mm 2 mps 747 mmHg 87%
    20:00 +18°C° 0,2 mm 2 mps 747 mmHg 90%
    21:00 +17°C° 0,2 mm 2 mps 747 mmHg 94%
    22:00 +16°C° 0 mm 2 mps 747 mmHg 94%
    23:00 +16°C° 0 mm 2 mps 747 mmHg 94%

    21 Agosto, Martes

    Tiempo Temperatura Precipitaciones Viento Presión Humedad
    00:00 +16°C° 0 mm 2 mps 747 mmHg 95%
    01:00 +15°C° 0 mm 2 mps 747 mmHg 95%
    02:00 +15°C° 0 mm 2 mps 747 mmHg 95%
    03:00 +15°C° 0 mm 2 mps 747 mmHg 95%
    04:00 +15°C° 0 mm 2 mps 747 mmHg 95%
    05:00 +16°C° 0 mm 2 mps 747 mmHg 94%
    06:00 +16°C° 0 mm 2 mps 747 mmHg 94%
    07:00 +18°C° 0 mm 2 mps 747 mmHg 89%
    08:00 +19°C° 0 mm 2 mps 747 mmHg 84%
    09:00 +21°C° 0 mm 2 mps 747 mmHg 79%
    10:00 +23°C° 0,1 mm 2 mps 747 mmHg 72%
    11:00 +24°C° 0,1 mm 3 mps 747 mmHg 66%
    12:00 +25°C° 0,1 mm 3 mps 746 mmHg 59%
    13:00 +25°C° 0,1 mm 3 mps 746 mmHg 60%
    14:00 +25°C° 0,1 mm 3 mps 746 mmHg 61%
    15:00 +25°C° 0,1 mm 4 mps 745 mmHg 62%
    16:00 +24°C° 0 mm 3 mps 745 mmHg 67%
    17:00 +24°C° 0 mm 3 mps 745 mmHg 72%
    18:00 +22°C° 0 mm 3 mps 744 mmHg 76%
    19:00 +21°C° 0 mm 3 mps 744 mmHg 79%
    20:00 +20°C° 0 mm 4 mps 744 mmHg 82%
    21:00 +19°C° 0 mm 4 mps 744 mmHg 84%
    22:00 +19°C° 0 mm 4 mps 743 mmHg 82%
    23:00 +19°C° 0 mm 5 mps 743 mmHg 80%

    22 Agosto, Miércoles

    Tiempo Temperatura Precipitaciones Viento Presión Humedad
    00:00 +19°C° 0 mm 5 mps 742 mmHg 78%
    01:00 +19°C° 0 mm 5 mps 742 mmHg 78%
    02:00 +17°C° 0 mm 5 mps 741 mmHg 78%
    03:00 +17°C° 0 mm 5 mps 741 mmHg 77%
    04:00 +17°C° 0,8 mm 5 mps 741 mmHg 82%
    05:00 +16°C° 0,8 mm 5 mps 740 mmHg 87%
    06:00 +16°C° 0,8 mm 5 mps 740 mmHg 91%
    07:00 +16°C° 0,5 mm 5 mps 741 mmHg 90%
    08:00 +16°C° 0,5 mm 5 mps 741 mmHg 89%
    09:00 +16°C° 0,5 mm 5 mps 741 mmHg 88%
    10:00 +17°C° 0,1 mm 5 mps 741 mmHg 81%
    11:00 +19°C° 0,1 mm 5 mps 742 mmHg 74%
    12:00 +19°C° 0,1 mm 5 mps 742 mmHg 67%
    13:00 +19°C° 0,3 mm 6 mps 742 mmHg 68%
    14:00 +17°C° 0,3 mm 6 mps 743 mmHg 69%
    15:00 +16°C° 0,3 mm 7 mps 743 mmHg 70%
    16:00 +15°C° 0 mm 6 mps 744 mmHg 72%
    17:00 +15°C° 0 mm 5 mps 744 mmHg 73%
    18:00 +14°C° 0 mm 4 mps 745 mmHg 75%
    19:00 +13°C° 0 mm 4 mps 745 mmHg 77%
    20:00 +12°C° 0 mm 4 mps 746 mmHg 79%
    21:00 +11°C° 0 mm 4 mps 747 mmHg 82%
    22:00 +10°C° 0 mm 4 mps 747 mmHg 82%
    23:00 +10°C° 0 mm 4 mps 747 mmHg 82%

    23 Agosto, Jueves

    Tiempo Temperatura Precipitaciones Viento Presión Humedad
    00:00 +8°C° 0 mm 4 mps 748 mmHg 82%
    01:00 +8°C° 0 mm 4 mps 748 mmHg 83%
    02:00 +7°C° 0 mm 4 mps 748 mmHg 84%
    03:00 +7°C° 0 mm 4 mps 749 mmHg 85%
    04:00 +7°C° 0 mm 4 mps 749 mmHg 85%
    05:00 +7°C° 0 mm 4 mps 749 mmHg 86%
    06:00 +8°C° 0 mm 4 mps 750 mmHg 86%
    07:00 +9°C° 0 mm 5 mps 750 mmHg 78%
    08:00 +10°C° 0 mm 5 mps 750 mmHg 69%
    09:00 +13°C° 0 mm 6 mps 750 mmHg 61%
    10:00 +14°C° 0 mm 6 mps 750 mmHg 58%
    11:00 +14°C° 0 mm 6 mps 750 mmHg 55%
    12:00 +15°C° 0 mm 6 mps 750 mmHg 52%
    13:00 +15°C° 0 mm 6 mps 750 mmHg 51%
    14:00 +16°C° 0 mm 6 mps 751 mmHg 51%
    15:00 +16°C° 0 mm 6 mps 751 mmHg 51%
    16:00 +15°C° 0 mm 5 mps 751 mmHg 55%
    17:00 +15°C° 0 mm 4 mps 751 mmHg 60%
    18:00 +14°C° 0 mm 3 mps 751 mmHg 65%
    19:00 +13°C° 0 mm 3 mps 751 mmHg 67%
    20:00 +12°C° 0 mm 3 mps 751 mmHg 69%
    21:00 +11°C° 0 mm 3 mps 751 mmHg 72%
    22:00 +11°C° 0 mm 3 mps 751 mmHg 72%
    23:00 +12°C° 0 mm 3 mps 751 mmHg 72%
    Mostrar más